Regional Weather Roundup
Issued by NWS

Home | Current Version | Previous Version | Graphics & Text | Print | Product List | Glossary On
Versions: 1 2 3 4 5 6 7 8 9 10 11 12 13 14 15 16 17 18 19 20 21 22 23 24 25 26 27 28 29 30 31 32 33 34 35 36 37 38 39 40 41 42 43 44 45 46 47 48 49 50
000
ASUS45 KBOI 300210
RWRID

IDAHO REGIONAL WEATHER ROUNDUP
NATIONAL WEATHER SERVICE BOISE ID
800 PM MDT FRI JUL 29 2016

NOTE: "FAIR" INDICATES FEW OR NO CLOUDS BELOW 12000 FEET
WITH NO SIGNIFICANT WEATHER AND/OR OBSTRUCTIONS TO VISIBILITY

IDZ012-014-300300-
SOUTHWEST IDAHO


CITY           SKY/WX    TMP DP  RH WIND       PRES   REMARKS
BOISE          SUNNY     98  36  11 NW8       29.80F HX  93
CALDWELL       SUNNY     96  54  24 CALM      29.78F HX  94
MOUNTAIN HOME  SUNNY     99  40  13 NW13      29.82F HX  94
$$

IDZ016-017-300300-
SOUTHCENTRAL IDAHO


CITY           SKY/WX    TMP DP  RH WIND       PRES   REMARKS
BURLEY         CLEAR     84  53  34 SW9       29.91F
JEROME         CLEAR     91  46  21 SW8       29.91F
TWIN FALLS     CLEAR     94  36  13 VRB6      29.92F
$$

IDZ019>023-300300-
SOUTHEAST IDAHO


CITY           SKY/WX    TMP DP  RH WIND       PRES   REMARKS
IDAHO FALLS    CLEAR     90  34  13 S5        29.95F
POCATELLO      CLEAR     90  40  17 SW13      29.93F
REXBURG        CLEAR     86  40  19 SE7       29.97F
$$

IDZ006-010-011-018-031-032-300300-
CENTRAL IDAHO MOUNTAINS


CITY           SKY/WX    TMP DP  RH WIND       PRES   REMARKS
MCCALL         SUNNY     86  35  16 W3        30.01F
HAILEY         CLEAR     88  36  15 W9        29.99F
STANLEY          N/A     83  30  14 W3        30.12F
SALMON         CLEAR     90  46  22 N3        29.84F
CHALLIS        CLEAR     91  36  14 NW3       29.94F
$$

IDZ002-004-006-007-026-300300-
NORTHERN IDAHO


CITY           SKY/WX    TMP DP  RH WIND       PRES   REMARKS
LEWISTON       SUNNY    100  39  12 CALM      29.75F HX  95
LOWELL           N/A     80  56  43 CALM      29.77F
COEUR D`ALENE  SUNNY     91  50  24 SE5       29.79F
MULLAN PASS    SUNNY     74  45  35 VRB3      30.12F
$$



USA.gov is the U.S. government's official web portal to all federal, state and local government web resources and services.